Location: Unspecified
(0.0000°N, 1.0000°E)
Time: 18:07:28
(UTC+02:00)

Amateur Radio Satellites - All Passes

Search period start: 21 September 2014 17:37
Search period end: 22 September 2014 17:37
Location: Unspecified, 0.0000°N, 1.0000°E

Satellite Date Start Highest point End Downlink Frequencies (MHz)
Time Altitude Azimuth
OPAL 21 Sep 17:59:25 18:04:12 44° 104° (ESE) 18:08:56 ?
RS-15 21 Sep 18:06:32 18:13:40 18° 246° (WSW) 18:21:01 29.354 - 29.394 USB, Beacon 29.352 USB
Uosat F 21 Sep 18:07:49 18:12:48 71° 257° (WSW) 18:17:45 435.120 FM
AO-7 21 Sep 18:18:00 18:26:16 66° 254° (WSW) 18:34:28 29.400 - 29.500 MHz
Oscar 10/S400 21 Sep 18:54:04 19:11:50 41° 351° (N) 19:50:33 145.825 - 145.975 CW/USB, Beacon 145.810 USB
JAS-2 21 Sep 19:00:46 19:06:16 42° 79° (ENE) 19:11:16 435.800 - 435.900 CW/SSB, 435.910 FM
KITSAT 1 21 Sep 19:22:56 19:30:58 68° 290° (WNW) 19:38:58 435.175 FM
MaSat-1 21 Sep 19:27:04 19:28:14 12° 70° (ENE) 19:29:22 437.345 MHz
Hamsat 21 Sep 19:38:10 19:42:29 67° 259° (WSW) 19:46:48 145.90 MHz
OPAL 21 Sep 19:42:28 19:42:46 10° 285° (WNW) 19:43:05 ?
AO-40 21 Sep 19:44:20 02:25:38 86° 182° (S) 10:52:51 Beacon 2401.320
SO-67 21 Sep 19:52:29 19:53:09 10° 79° (E) 19:53:49 435.3500 MHz FM
PANSAT 21 Sep 20:02:41 20:05:04 16° 152° (SSE) 20:07:28 not established
STRAND 1 21 Sep 20:21:46 20:26:54 80° 103° (ESE) 20:32:04 ?
SO-50 21 Sep 20:34:39 20:35:20 10° 113° (ESE) 20:36:01 436.795 FM
JAS-2 21 Sep 20:48:45 20:50:54 12° 254° (WSW) 20:52:59 435.800 - 435.900 CW/SSB, 435.910 FM
SO-67 21 Sep 21:23:34 21:25:54 17° 259° (W) 21:28:14 435.3500 MHz FM
PANSAT 21 Sep 21:41:23 21:45:14 77° 329° (NNW) 21:49:05 not established
SO-50 21 Sep 22:11:41 22:15:38 33° 292° (WNW) 22:19:36 436.795 FM
HO-68 21 Sep 22:40:06 22:47:16 88° 76° (ENE) 22:54:24 435.675 MHz FM
PCSat 21 Sep 22:46:19 22:50:02 19° 70° (ENE) 22:53:44 145.825 MHz
Oscar 11 21 Sep 22:54:29 22:58:28 35° 78° (ENE) 23:02:26 145.825 FM, Beacon 2401.500 USB
UKube-1 21 Sep 23:12:58 23:17:19 79° 258° (WSW) 23:21:37 145.840 MHz, 145.915 MHz
PANSAT 21 Sep 23:23:56 23:25:26 12° 332° (NNW) 23:26:57 not established
UOSAT-12 21 Sep 23:37:26 23:41:51 65° 292° (WNW) 23:46:22 437.025 FM, 437.400 FM
ISS 21 Sep 23:39:34 23:41:26 14° 126° (SE) 23:43:18 145.800 FM
Oscar 10/S400 21 Sep 23:40:53 03:11:33 25° 116° (ESE) 05:06:34 145.825 - 145.975 CW/USB, Beacon 145.810 USB
Sapphire 22 Sep 00:01:04 00:06:24 64° 251° (WSW) 00:11:45 437.095 MHz 1200 baud AX-25 AFSK
FUNcube-1 22 Sep 00:26:08 00:30:00 34° 259° (WSW) 00:33:56 145.950 - 145.970 MHz USB
PCSat 22 Sep 00:28:36 00:33:10 28° 251° (WSW) 00:37:45 145.825 MHz
ISS 22 Sep 01:15:37 01:17:57 18° 306° (NW) 01:20:16 145.800 FM
Oscar 16 22 Sep 02:14:52 02:18:17 18° 103° (ESE) 02:21:41 437.025 USB, Beacon 2401.1428
ITAMSAT 1 22 Sep 03:02:22 03:06:22 23° 103° (ESE) 03:10:23 435.822 SSB
JAS-1B 22 Sep 03:05:11 03:10:31 34° 106° (ESE) 03:16:32 435.800 - 435.900 CW/SSB
Uribyol 2 22 Sep 03:05:39 03:10:00 27° 103° (ESE) 03:14:20 436.500 FM
Oscar 19 22 Sep 03:13:03 03:18:11 86° 282° (WNW) 03:23:18 437.125 CW, 437.150 USB
RS-15 22 Sep 03:33:07 03:44:32 64° 111° (ESE) 03:55:23 29.354 - 29.394 USB, Beacon 29.352 USB
AO-27 22 Sep 03:36:48 03:41:56 62° 103° (ESE) 03:47:07 436.795 MHz FM
TMSAT-1 22 Sep 03:40:14 03:43:29 17° 103° (ESE) 03:46:44 436.925 FM
AO-Echo 22 Sep 03:46:30 03:51:34 81° 282° (WNW) 03:56:49 ?
Oscar 16 22 Sep 03:53:06 03:57:21 27° 283° (WNW) 04:01:38 437.025 USB, Beacon 2401.1428
Saudisat 1A 22 Sep 04:19:56 04:24:19 79° 68° (ENE) 04:28:42 436.775 MHz
ITAMSAT 1 22 Sep 04:41:35 04:45:35 23° 283° (WNW) 04:49:37 435.822 SSB
Gurwin Techsat 1B 22 Sep 04:42:28 04:47:38 56° 282° (WNW) 04:52:51 435.225 FM
Uribyol 2 22 Sep 04:45:36 04:49:11 19° 283° (WNW) 04:52:47 436.500 FM
AO-7 22 Sep 04:53:30 05:00:06 27° 107° (ESE) 05:06:42 29.400 - 29.500 MHz
JAS-1B 22 Sep 04:57:12 05:01:03 18° 281° (W) 05:05:13 435.800 - 435.900 CW/SSB
Uosat F 22 Sep 05:00:59 05:03:58 16° 103° (ESE) 05:06:56 435.120 FM
TMSAT-1 22 Sep 05:18:30 05:23:07 31° 282° (WNW) 05:27:46 436.925 FM
KITSAT 1 22 Sep 05:38:33 05:43:50 19° 69° (ENE) 05:49:05 435.175 FM
RS-15 22 Sep 05:48:49 05:56:25 21° 292° (WNW) 06:03:55 29.354 - 29.394 USB, Beacon 29.352 USB
OPAL 22 Sep 06:30:43 06:35:49 74° 256° (WSW) 06:40:58 ?
JAS-2 22 Sep 06:31:24 06:37:22 28° 105° (ESE) 06:43:41 435.800 - 435.900 CW/SSB, 435.910 FM
Uosat F 22 Sep 06:38:08 06:42:27 30° 283° (WNW) 06:46:49 435.120 FM
AO-7 22 Sep 06:44:55 06:52:30 41° 286° (WNW) 07:00:09 29.400 - 29.500 MHz
MaSat-1 22 Sep 07:12:23 07:16:00 23° 105° (ESE) 07:19:49 437.345 MHz
STRAND 1 22 Sep 07:19:06 07:20:50 12° 77° (ENE) 07:22:33 ?
KITSAT 1 22 Sep 07:31:10 07:38:55 53° 250° (WSW) 07:46:42 435.175 FM
Hamsat 22 Sep 07:45:40 07:49:42 50° 281° (WNW) 07:53:45 145.90 MHz
PANSAT 22 Sep 07:50:00 07:52:26 16° 28° (NNE) 07:54:53 not established
JAS-2 22 Sep 08:15:45 08:21:59 35° 282° (WNW) 08:28:45 435.800 - 435.900 CW/SSB, 435.910 FM
SO-50 22 Sep 08:44:54 08:48:42 23° 68° (ENE) 08:52:30 436.795 FM
MaSat-1 22 Sep 08:49:10 08:52:28 19° 289° (WNW) 08:55:55 437.345 MHz
STRAND 1 22 Sep 08:55:01 08:59:45 39° 257° (WSW) 09:04:27 ?
SO-67 22 Sep 09:07:17 09:10:21 31° 281° (W) 09:13:26 435.3500 MHz FM
PANSAT 22 Sep 09:28:45 09:32:35 73° 210° (SSW) 09:36:26 not established
UOSAT-12 22 Sep 10:11:35 10:12:23 10° 67° (ENE) 10:13:11 437.025 FM, 437.400 FM
SO-50 22 Sep 10:25:30 10:29:02 20° 248° (WSW) 10:32:33 436.795 FM
HO-68 22 Sep 10:31:37 10:38:46 75° 104° (ESE) 10:45:57 435.675 MHz FM
Sapphire 22 Sep 10:55:14 10:59:39 26° 110° (ESE) 11:04:04 437.095 MHz 1200 baud AX-25 AFSK
FUNcube-1 22 Sep 11:02:30 11:04:50 14° 101° (ESE) 11:07:08 145.950 - 145.970 MHz USB
Oscar 11 22 Sep 11:03:29 11:07:37 48° 102° (ESE) 11:11:46 145.825 FM, Beacon 2401.500 USB
PANSAT 22 Sep 11:11:25 11:12:48 12° 207° (SSW) 11:14:11 not established
PCSat 22 Sep 11:21:03 11:26:21 59° 109° (ESE) 11:31:39 145.825 MHz
UKube-1 22 Sep 11:22:43 11:26:58 57° 282° (WNW) 11:31:16 145.840 MHz, 145.915 MHz
UOSAT-12 22 Sep 11:48:07 11:52:19 36° 248° (WSW) 11:56:27 437.025 FM, 437.400 FM
FUNcube-1 22 Sep 12:37:17 12:40:58 25° 282° (WNW) 12:44:36 145.950 - 145.970 MHz USB
Sapphire 22 Sep 12:38:54 12:42:48 20° 290° (WNW) 12:46:42 437.095 MHz 1200 baud AX-25 AFSK
ISS 22 Sep 12:50:37 12:53:27 26° 234° (SW) 12:56:19 145.800 FM
Oscar 19 22 Sep 14:10:04 14:12:56 15° 77° (ENE) 14:15:49 437.125 CW, 437.150 USB
AO-Echo 22 Sep 14:40:40 14:42:47 13° 78° (ENE) 14:44:53 ?
Oscar 16 22 Sep 14:47:14 14:52:12 47° 78° (ENE) 14:57:08 437.025 USB, Beacon 2401.1428
JAS-1B 22 Sep 15:13:22 15:22:45 56° 77° (ENE) 15:30:58 435.800 - 435.900 CW/SSB
RS-15 22 Sep 15:14:16 15:25:24 54° 70° (ENE) 15:36:59 29.354 - 29.394 USB, Beacon 29.352 USB
ITAMSAT 1 22 Sep 15:36:27 15:41:33 60° 77° (ENE) 15:46:36 435.822 SSB
Uribyol 2 22 Sep 15:39:51 15:44:59 72° 77° (ENE) 15:50:07 436.500 FM
Gurwin Techsat 1B 22 Sep 15:42:10 15:46:34 27° 77° (ENE) 15:50:57 435.225 FM
Oscar 19 22 Sep 15:47:24 15:52:00 33° 257° (WSW) 15:56:36 437.125 CW, 437.150 USB
AO-27 22 Sep 16:12:19 16:17:18 48° 257° (WSW) 16:22:15 436.795 MHz FM
TMSAT-1 22 Sep 16:16:38 16:21:42 47° 78° (ENE) 16:26:45 436.925 FM
AO-Echo 22 Sep 16:16:59 16:21:20 32° 257° (WSW) 16:25:34 ?
Saudisat 1A 22 Sep 16:26:06 16:30:26 65° 292° (WNW) 16:34:46 436.775 MHz
JAS-1B 22 Sep 17:05:34 17:12:31 23° 253° (WSW) 17:19:01 435.800 - 435.900 CW/SSB
AO-7 22 Sep 17:18:47 17:26:35 44° 74° (ENE) 17:34:19 29.400 - 29.500 MHz
Gurwin Techsat 1B 22 Sep 17:22:32 17:26:15 20° 257° (WSW) 17:29:58 435.225 FM
OPAL 22 Sep 17:26:05 17:29:05 16° 104° (ESE) 17:32:05 ?
